When you browse on this site, cookies collect data to enhance your experience and personalize the content and advertising you see.
Visit our Privacy Policy to learn more. By continuing to use the site, you agree to this use of cookies and data.
  • In Hungary
  • List of Countries
  • For 7 days
  • Water Temperature
  • Weather Map
  • News
  • Weather Widgets
  • user-avatar
    Login

    Hourly Weather Kozow

    Today, 12 November, Tuesday

    Time Temperature Precipitation Wind Pressure Humidity
    00:00 +3°C° 0 mm 3 mps 740 mmHg 85%
    01:00 +5°C° 0 mm 2 mps 740 mmHg 86%
    02:00 +4°C° 0 mm 2 mps 740 mmHg 87%
    03:00 +4°C° 0 mm 2 mps 740 mmHg 88%
    04:00 +5°C° 0 mm 1 mps 740 mmHg 89%
    05:00 +5°C° 0 mm 1 mps 740 mmHg 89%
    06:00 +5°C° 0 mm 1 mps 741 mmHg 89%
    07:00 +5°C° 0 mm 1 mps 741 mmHg 89%
    08:00 +6°C° 0 mm 1 mps 741 mmHg 85%
    09:00 +5°C° 0 mm 2 mps 741 mmHg 82%
    10:00 +6°C° 0 mm 2 mps 741 mmHg 78%
    11:00 +6°C° 0.2 mm 2 mps 741 mmHg 80%
    12:00 +7°C° 0.2 mm 1 mps 741 mmHg 81%
    13:00 +7°C° 0.2 mm 1 mps 741 mmHg 83%
    14:00 +7°C° 0.3 mm 1 mps 740 mmHg 86%
    15:00 +7°C° 0.3 mm 1 mps 740 mmHg 89%
    16:00 +6°C° 0.3 mm 1 mps 740 mmHg 92%
    17:00 +6°C° 0.6 mm 1 mps 740 mmHg 93%
    18:00 +6°C° 0.6 mm 1 mps 740 mmHg 94%
    19:00 +6°C° 0.6 mm 1 mps 740 mmHg 95%
    20:00 +6°C° 0.8 mm 1 mps 739 mmHg 95%
    21:00 +6°C° 0.8 mm 1 mps 739 mmHg 96%
    22:00 +6°C° 0.8 mm 1 mps 739 mmHg 96%
    23:00 +6°C° 1 mm 1 mps 738 mmHg 96%

    Tomorrow, 13 November, Wednesday

    Time Temperature Precipitation Wind Pressure Humidity
    00:00 +5°C° 1 mm 2 mps 738 mmHg 95%
    01:00 +4°C° 1 mm 2 mps 738 mmHg 95%
    02:00 +4°C° 0.3 mm 2 mps 737 mmHg 95%
    03:00 +5°C° 0.3 mm 1 mps 737 mmHg 95%
    04:00 +5°C° 0.3 mm 1 mps 737 mmHg 95%
    05:00 +5°C° 0.1 mm 1 mps 736 mmHg 95%
    06:00 +5°C° 0.1 mm 1 mps 736 mmHg 95%
    07:00 +5°C° 0.1 mm 1 mps 736 mmHg 95%
    08:00 +5°C° 0.1 mm 1 mps 736 mmHg 95%
    09:00 +4°C° 0.1 mm 2 mps 736 mmHg 94%
    10:00 +4°C° 0.1 mm 2 mps 736 mmHg 93%
    11:00 +4°C° 0.6 mm 2 mps 736 mmHg 94%
    12:00 +5°C° 0.6 mm 2 mps 736 mmHg 94%
    13:00 +5°C° 0.6 mm 2 mps 736 mmHg 94%
    14:00 +5°C° 0.5 mm 2 mps 736 mmHg 95%
    15:00 +5°C° 0.5 mm 2 mps 736 mmHg 95%
    16:00 +5°C° 0.5 mm 2 mps 736 mmHg 95%
    17:00 +4°C° 1.1 mm 2 mps 736 mmHg 95%
    18:00 +3°C° 1.1 mm 3 mps 736 mmHg 95%
    19:00 +3°C° 1.1 mm 3 mps 736 mmHg 95%
    20:00 +3°C° 2.8 mm 3 mps 736 mmHg 96%
    21:00 +1°C° 2.8 mm 4 mps 736 mmHg 96%
    22:00 +1°C° 2.8 mm 4 mps 736 mmHg 97%
    23:00 +1°C° 1.8 mm 4 mps 736 mmHg 97%

    Day after tomorrow, 14 November, Thursday

    Time Temperature Precipitation Wind Pressure Humidity
    00:00 0°C° 1.8 mm 4 mps 737 mmHg 97%
    01:00 0°C° 1.8 mm 4 mps 737 mmHg 97%
    02:00 +1°C° 0.2 mm 3 mps 738 mmHg 97%
    03:00 +1°C° 0.2 mm 3 mps 738 mmHg 97%
    04:00 +2°C° 0.2 mm 3 mps 738 mmHg 97%
    05:00 +2°C° 0 mm 2 mps 739 mmHg 96%
    06:00 +3°C° 0 mm 1 mps 739 mmHg 94%
    07:00 +3°C° 0 mm 1 mps 740 mmHg 93%
    08:00 +4°C° 0 mm 1 mps 740 mmHg 91%
    09:00 +4°C° 0 mm 1 mps 740 mmHg 89%
    10:00 +5°C° 0 mm 1 mps 740 mmHg 87%
    11:00 +5°C° 0 mm 2 mps 740 mmHg 87%
    12:00 +5°C° 0 mm 2 mps 741 mmHg 86%
    13:00 +5°C° 0 mm 3 mps 741 mmHg 85%
    14:00 +5°C° 0 mm 3 mps 740 mmHg 87%
    15:00 +4°C° 0 mm 3 mps 740 mmHg 88%
    16:00 +4°C° 0 mm 3 mps 740 mmHg 90%
    17:00 +4°C° 0 mm 3 mps 740 mmHg 91%
    18:00 +4°C° 0 mm 3 mps 740 mmHg 91%
    19:00 +5°C° 0 mm 3 mps 740 mmHg 92%
    20:00 +5°C° 0 mm 3 mps 740 mmHg 93%
    21:00 +4°C° 0 mm 3 mps 739 mmHg 94%
    22:00 +4°C° 0 mm 3 mps 739 mmHg 95%
    23:00 +5°C° 0 mm 3 mps 739 mmHg 95%

    15 November, Friday

    Time Temperature Precipitation Wind Pressure Humidity
    00:00 +5°C° 0 mm 3 mps 738 mmHg 96%
    01:00 +5°C° 0 mm 3 mps 738 mmHg 97%
    02:00 +5°C° 0 mm 3 mps 738 mmHg 96%
    03:00 +5°C° 0 mm 3 mps 738 mmHg 96%
    04:00 +5°C° 0 mm 4 mps 737 mmHg 96%
    05:00 +5°C° 0 mm 4 mps 737 mmHg 95%
    06:00 +6°C° 0 mm 4 mps 737 mmHg 93%
    07:00 +6°C° 0 mm 5 mps 737 mmHg 92%
    08:00 +8°C° 0 mm 5 mps 737 mmHg 89%
    09:00 +9°C° 0 mm 5 mps 737 mmHg 85%
    10:00 +10°C° 0 mm 5 mps 737 mmHg 82%
    11:00 +12°C° 0 mm 5 mps 737 mmHg 78%
    12:00 +13°C° 0 mm 5 mps 737 mmHg 74%
    13:00 +14°C° 0 mm 5 mps 737 mmHg 71%
    14:00 +13°C° 0 mm 5 mps 737 mmHg 73%
    15:00 +12°C° 0 mm 4 mps 737 mmHg 75%
    16:00 +11°C° 0 mm 4 mps 737 mmHg 77%
    17:00 +11°C° 0 mm 4 mps 737 mmHg 79%
    18:00 +11°C° 0 mm 4 mps 737 mmHg 80%
    19:00 +10°C° 0 mm 4 mps 738 mmHg 82%
    20:00 +10°C° 0 mm 4 mps 738 mmHg 82%
    21:00 +10°C° 0 mm 4 mps 738 mmHg 82%
    22:00 +10°C° 0 mm 3 mps 739 mmHg 83%
    23:00 +10°C° 0 mm 3 mps 739 mmHg 83%

    16 November, Saturday

    Time Temperature Precipitation Wind Pressure Humidity
    00:00 +10°C° 0 mm 3 mps 739 mmHg 83%
    01:00 +10°C° 0 mm 3 mps 739 mmHg 83%
    02:00 +10°C° 0 mm 4 mps 739 mmHg 81%
    03:00 +10°C° 0 mm 4 mps 739 mmHg 80%
    04:00 +10°C° 0 mm 5 mps 739 mmHg 78%
    05:00 +10°C° 0 mm 5 mps 739 mmHg 79%
    06:00 +9°C° 0 mm 5 mps 739 mmHg 80%
    07:00 +9°C° 0 mm 5 mps 739 mmHg 81%
    08:00 +10°C° 0 mm 5 mps 739 mmHg 80%
    09:00 +12°C° 0 mm 5 mps 740 mmHg 78%
    10:00 +12°C° 0 mm 5 mps 741 mmHg 77%
    11:00 +13°C° 0 mm 5 mps 741 mmHg 75%
    12:00 +13°C° 0 mm 4 mps 742 mmHg 73%
    13:00 +13°C° 0 mm 4 mps 743 mmHg 72%
    14:00 +12°C° 0 mm 3 mps 743 mmHg 74%
    15:00 +11°C° 0 mm 3 mps 744 mmHg 77%
    16:00 +9°C° 0 mm 2 mps 744 mmHg 80%
    17:00 +9°C° 0 mm 1 mps 745 mmHg 82%
    18:00 +9°C° 0 mm 1 mps 746 mmHg 84%
    19:00 +7°C° 0 mm 0 mps 746 mmHg 86%
    20:00 +8°C° 0 mm 1 mps 746 mmHg 86%
    21:00 +8°C° 0 mm 1 mps 747 mmHg 87%
    22:00 +7°C° 0 mm 2 mps 747 mmHg 87%
    23:00 +7°C° 0 mm 2 mps 747 mmHg 87%

    17 November, Sunday

    Time Temperature Precipitation Wind Pressure Humidity
    00:00 +7°C° 0 mm 2 mps 746 mmHg 87%
    01:00 +8°C° 0 mm 3 mps 746 mmHg 87%
    02:00 +8°C° 0 mm 3 mps 746 mmHg 90%
    03:00 +8°C° 0 mm 3 mps 745 mmHg 92%
    04:00 +8°C° 0 mm 3 mps 745 mmHg 95%
    05:00 +7°C° 0 mm 4 mps 744 mmHg 94%
    06:00 +7°C° 0 mm 4 mps 744 mmHg 93%
    07:00 +8°C° 0 mm 4 mps 744 mmHg 92%
    08:00 +10°C° 0 mm 4 mps 744 mmHg 87%
    09:00 +10°C° 0 mm 5 mps 743 mmHg 82%
    10:00 +12°C° 0 mm 5 mps 743 mmHg 77%
    11:00 +13°C° 0 mm 5 mps 743 mmHg 73%
    12:00 +14°C° 0 mm 5 mps 742 mmHg 70%
    13:00 +15°C° 0 mm 6 mps 742 mmHg 66%
    14:00 +14°C° 0 mm 6 mps 742 mmHg 69%
    15:00 +13°C° 0 mm 5 mps 741 mmHg 72%
    16:00 +13°C° 0 mm 5 mps 741 mmHg 75%
    17:00 +12°C° 0 mm 5 mps 741 mmHg 76%
    18:00 +11°C° 0 mm 6 mps 741 mmHg 78%
    19:00 +10°C° 0 mm 6 mps 740 mmHg 79%
    20:00 +10°C° 0 mm 6 mps 740 mmHg 79%
    21:00 +10°C° 0 mm 6 mps 740 mmHg 79%
    22:00 +10°C° 0 mm 6 mps 740 mmHg 78%
    23:00 +10°C° 0 mm 5 mps 740 mmHg 79%
    Show more